Starlink 30492

operational
NORAD ID: 57921 Int'l Des: 2023-147 Owner: SPXS Country: US Constellation: starlink
LEOCIRCULAR

About Starlink 30492

Description loading...

Live Position

Loading 3D Globe...

Upcoming Passes

Altitude History

Altitude vs Time

uPlot chart will show altitude changes over time

Two-Line Element Set

1 57921U 23147J 25308.62398918 .00001161 00000-0 10098-3 0 9995
2 57921 43.0044 285.7278 0001511 279.5795 80.4877 15.02541990117775
Epoch: Nov 4, 2025 • Age: 4 hours

Current Status

Altitude 562.1 km
Velocity 7.59 km/s
Sub-Earth Point 38.03°N, 83.94°E
Launch Date Sep 24, 2023
Age 2.1 years
Type internet

Technical Details

Classification Payload
Mass 730.00 kg
Dry Mass 700.00 kg
Total Mass 730.00 kg
Length 0.30 m
Diameter 4.10 m
Span 29.00 m
Shape Box + pan
Manufacturer SPXS
Bus Type Starlink V2M
Phase Status In Orbit
Owner/State SPXS/US

Large Constellations

Loading constellations...